Time,TemperatureF,DewpointF,PressureIn,WindDirection,WindDirectionDegrees,WindSpeedMPH,WindSpeedGustMPH,Humidity,HourlyPrecipIn,Conditions,Clouds,dailyrainin,SoftwareType,DateUTC
2013-01-06 00:10:00,40.4,39.0,30.26,SE,137,0.0,1.0,94,0.02,,,0.04,weatherlink.com 1.10,2013-01-06 05:10:00,
2013-01-06 00:25:00,40.4,39.0,30.26,SE,138,0.0,0.0,94,0.02,,,0.04,weatherlink.com 1.10,2013-01-06 05:25:00,
2013-01-06 00:40:00,40.3,39.0,30.25,SE,138,0.0,0.0,94,0.03,,,0.05,weatherlink.com 1.10,2013-01-06 05:40:00,
2013-01-06 00:55:00,40.3,39.0,30.25,SE,138,0.0,0.0,95,0.03,,,0.06,weatherlink.com 1.10,2013-01-06 05:55:00,
2013-01-06 01:10:00,40.3,39.0,30.24,SE,138,0.0,0.0,95,0.02,,,0.06,weatherlink.com 1.10,2013-01-06 06:10:00,
2013-01-06 01:55:00,39.9,38.0,30.24,SE,137,0.0,2.0,94,0.01,,,0.00,weatherlink.com 1.10,2013-01-06 06:55:00,
2013-01-06 02:10:00,39.8,38.0,30.25,SE,130,0.0,1.0,94,0.01,,,0.00,weatherlink.com 1.10,2013-01-06 07:10:00,
2013-01-06 02:25:00,39.8,38.0,30.24,SE,130,0.0,0.0,94,0.00,,,0.00,weatherlink.com 1.10,2013-01-06 07:25:00,
2013-01-06 02:55:00,39.7,38.0,30.24,SE,131,0.0,0.0,94,0.00,,,0.00,weatherlink.com 1.10,2013-01-06 07:55:00,
2013-01-06 03:10:00,39.7,38.0,30.23,SE,130,0.0,0.0,94,0.01,,,0.01,weatherlink.com 1.10,2013-01-06 08:10:00,
2013-01-06 03:25:00,39.7,38.0,30.23,SE,131,0.0,0.0,94,0.01,,,0.01,weatherlink.com 1.10,2013-01-06 08:25:00,
2013-01-06 03:40:00,39.6,38.0,30.22,SE,131,0.0,0.0,94,0.01,,,0.01,weatherlink.com 1.10,2013-01-06 08:40:00,
2013-01-06 03:55:00,39.6,38.0,30.22,SE,131,0.0,0.0,94,0.01,,,0.01,weatherlink.com 1.10,2013-01-06 08:55:00,
2013-01-06 04:10:00,39.6,38.0,30.21,SE,131,0.0,1.0,95,0.00,,,0.01,weatherlink.com 1.10,2013-01-06 09:10:00,
2013-01-06 04:40:00,39.5,38.0,30.20,SE,131,0.0,0.0,95,0.00,,,0.01,weatherlink.com 1.10,2013-01-06 09:40:00,
2013-01-06 04:55:00,39.5,38.0,30.20,SE,131,0.0,0.0,95,0.00,,,0.01,weatherlink.com 1.10,2013-01-06 09:55:00,
2013-01-06 05:10:00,39.5,38.0,30.20,SE,131,0.0,1.0,95,0.00,,,0.01,weatherlink.com 1.10,2013-01-06 10:10:00,
2013-01-06 05:25:00,39.6,38.0,30.19,SE,131,0.0,0.0,95,0.00,,,0.01,weatherlink.com 1.10,2013-01-06 10:25:00,
2013-01-06 05:40:00,39.6,38.0,30.19,SE,130,0.0,0.0,95,0.00,,,0.01,weatherlink.com 1.10,2013-01-06 10:40:00,
2013-01-06 05:55:00,39.6,38.0,30.19,SE,130,0.0,0.0,95,0.00,,,0.01,weatherlink.com 1.10,2013-01-06 10:55:00,
2013-01-06 06:10:00,39.7,38.0,30.20,SE,130,0.0,0.0,95,0.00,,,0.01,weatherlink.com 1.10,2013-01-06 11:10:00,
2013-01-06 06:25:00,39.7,38.0,30.20,SE,131,0.0,1.0,95,0.00,,,0.01,weatherlink.com 1.10,2013-01-06 11:25:00,
2013-01-06 06:40:00,39.8,39.0,30.20,SE,131,0.0,0.0,95,0.00,,,0.01,weatherlink.com 1.10,2013-01-06 11:40:00,
2013-01-06 07:10:00,39.8,39.0,30.21,SE,130,0.0,0.0,95,0.00,,,0.01,weatherlink.com 1.10,2013-01-06 12:10:00,
2013-01-06 07:25:00,39.8,39.0,30.21,SE,130,0.0,0.0,95,0.00,,,0.01,weatherlink.com 1.10,2013-01-06 12:25:00,
2013-01-06 07:40:00,39.8,39.0,30.21,SE,130,0.0,0.0,95,0.00,,,0.01,weatherlink.com 1.10,2013-01-06 12:40:00,
2013-01-06 07:55:00,39.8,39.0,30.20,SE,130,0.0,0.0,95,0.00,,,0.01,weatherlink.com 1.10,2013-01-06 12:55:00,
2013-01-06 08:10:00,39.9,39.0,30.20,SE,130,0.0,1.0,95,0.00,,,0.01,weatherlink.com 1.10,2013-01-06 13:10:00,
2013-01-06 08:25:00,39.9,39.0,30.20,SE,130,0.0,0.0,95,0.00,,,0.01,weatherlink.com 1.10,2013-01-06 13:25:00,
2013-01-06 08:40:00,40.0,39.0,30.21,SE,130,0.0,0.0,95,0.00,,,0.01,weatherlink.com 1.10,2013-01-06 13:40:00,
2013-01-06 08:55:00,40.1,39.0,30.22,SE,130,0.0,0.0,95,0.00,,,0.01,weatherlink.com 1.10,2013-01-06 13:55:00,
2013-01-06 09:10:00,40.3,39.0,30.21,SE,125,0.0,2.0,95,0.00,,,0.01,weatherlink.com 1.10,2013-01-06 14:10:00,
2013-01-06 09:25:00,40.6,39.0,30.21,SE,125,0.0,0.0,95,0.00,,,0.01,weatherlink.com 1.10,2013-01-06 14:25:00,
2013-01-06 09:41:00,40.9,40.0,30.22,SE,125,0.0,0.0,95,0.00,,,0.01,weatherlink.com 1.10,2013-01-06 14:41:00,
2013-01-06 09:56:00,41.3,40.0,30.22,SE,125,0.0,0.0,95,0.00,,,0.01,weatherlink.com 1.10,2013-01-06 14:56:00,
2013-01-06 10:11:00,41.5,40.0,30.22,SE,125,0.0,0.0,94,0.00,,,0.01,weatherlink.com 1.10,2013-01-06 15:11:00,
2013-01-06 10:41:00,42.2,40.0,30.22,ESE,123,0.0,2.0,92,0.00,,,0.01,weatherlink.com 1.10,2013-01-06 15:41:00,
2013-01-06 10:56:00,43.3,40.0,30.22,SE,124,1.0,2.0,89,0.00,,,0.01,weatherlink.com 1.10,2013-01-06 15:56:00,
2013-01-06 11:11:00,43.8,40.0,30.22,SE,129,0.0,2.0,86,0.00,,,0.01,weatherlink.com 1.10,2013-01-06 16:11:00,
2013-01-06 11:26:00,44.0,40.0,30.22,SE,129,0.0,2.0,85,0.00,,,0.01,weatherlink.com 1.10,2013-01-06 16:26:00,
2013-01-06 11:41:00,44.5,40.0,30.21,SE,128,0.0,3.0,83,0.00,,,0.01,weatherlink.com 1.10,2013-01-06 16:41:00,
2013-01-06 11:56:00,44.3,38.0,30.20,SSE,155,0.0,1.0,79,0.00,,,0.01,weatherlink.com 1.10,2013-01-06 16:56:00,
2013-01-06 12:11:00,44.1,39.0,30.19,North,355,0.0,2.0,81,0.00,,,0.01,weatherlink.com 1.10,2013-01-06 17:11:00,
2013-01-06 12:26:00,44.2,38.0,30.18,North,355,0.0,3.0,79,0.00,,,0.01,weatherlink.com 1.10,2013-01-06 17:26:00,
2013-01-06 12:41:00,45.1,38.0,30.17,South,180,0.0,2.0,76,0.00,,,0.01,weatherlink.com 1.10,2013-01-06 17:41:00,
2013-01-06 12:56:00,47.1,39.0,30.18,SSE,158,0.0,3.0,73,0.00,,,0.01,weatherlink.com 1.10,2013-01-06 17:56:00,
2013-01-06 13:11:00,47.8,39.0,30.16,SSW,213,1.0,4.0,72,0.00,,,0.01,weatherlink.com 1.10,2013-01-06 18:11:00,
2013-01-06 13:26:00,47.8,38.0,30.16,NW,323,0.0,4.0,70,0.00,,,0.01,weatherlink.com 1.10,2013-01-06 18:26:00,
2013-01-06 13:41:00,48.1,39.0,30.15,WSW,244,0.0,5.0,71,0.00,,,0.01,weatherlink.com 1.10,2013-01-06 18:41:00,
2013-01-06 13:56:00,47.6,37.0,30.16,West,261,1.0,3.0,67,0.00,,,0.01,weatherlink.com 1.10,2013-01-06 18:56:00,
2013-01-06 14:11:00,47.8,38.0,30.15,NW,325,0.0,2.0,69,0.00,,,0.01,weatherlink.com 1.10,2013-01-06 19:11:00,
2013-01-06 14:26:00,47.8,38.0,30.15,East,79,0.0,3.0,70,0.00,,,0.01,weatherlink.com 1.10,2013-01-06 19:26:00,
2013-01-06 14:56:00,48.2,38.0,30.13,SE,138,0.0,6.0,68,0.00,,,0.01,weatherlink.com 1.10,2013-01-06 19:56:00,
2013-01-06 15:11:00,48.8,39.0,30.13,South,175,0.0,4.0,68,0.00,,,0.01,weatherlink.com 1.10,2013-01-06 20:11:00,
2013-01-06 15:41:00,48.8,38.0,30.13,SE,128,0.0,3.0,67,0.00,,,0.01,weatherlink.com 1.10,2013-01-06 20:41:00,
2013-01-06 16:11:00,48.5,38.0,30.13,SE,141,1.0,5.0,67,0.00,,,0.01,weatherlink.com 1.10,2013-01-06 21:11:00,
2013-01-06 16:26:00,48.3,38.0,29.42,West,271,0.0,5.0,68,0.00,,,0.01,weatherlink.com 1.10,2013-01-06 21:26:00,
2013-01-06 16:41:00,48.8,38.0,29.42,North,5,0.0,2.0,66,0.00,,,0.01,weatherlink.com 1.10,2013-01-06 21:41:00,
2013-01-06 16:56:00,48.8,38.0,29.78,NE,36,0.0,1.0,66,0.00,,,0.01,weatherlink.com 1.10,2013-01-06 21:56:00,
2013-01-06 17:11:00,48.7,36.0,30.15,NW,319,0.0,3.0,63,0.00,,,0.01,weatherlink.com 1.10,2013-01-06 22:11:00,
2013-01-06 17:26:00,48.6,36.0,30.15,WSW,252,1.0,2.0,63,0.00,,,0.01,weatherlink.com 1.10,2013-01-06 22:26:00,
2013-01-06 17:41:00,47.7,36.0,30.16,WNW,287,0.0,2.0,64,0.00,,,0.01,weatherlink.com 1.10,2013-01-06 22:41:00,
2013-01-06 17:56:00,46.9,36.0,30.17,West,271,0.0,1.0,65,0.00,,,0.01,weatherlink.com 1.10,2013-01-06 22:56:00,
2013-01-06 18:11:00,46.4,36.0,30.18,West,272,0.0,1.0,67,0.00,,,0.01,weatherlink.com 1.10,2013-01-06 23:11:00,
2013-01-06 18:26:00,46.3,36.0,30.18,NNW,331,0.0,2.0,67,0.00,,,0.01,weatherlink.com 1.10,2013-01-06 23:26:00,
2013-01-06 18:41:00,45.9,37.0,30.18,NNW,331,0.0,0.0,70,0.00,,,0.01,weatherlink.com 1.10,2013-01-06 23:41:00,
2013-01-06 18:56:00,44.9,36.0,30.18,NNW,331,0.0,0.0,70,0.00,,,0.01,weatherlink.com 1.10,2013-01-06 23:56:00,
2013-01-06 19:11:00,43.8,35.0,30.19,NNW,330,0.0,1.0,72,0.00,,,0.01,weatherlink.com 1.10,2013-01-07 00:11:00,
2013-01-06 21:54:00,42.2,32.0,30.26,NW,321,0.0,3.0,68,0.00,,,0.00,weatherlink.com 1.10,2013-01-07 02:54:00,
2013-01-06 22:09:00,41.1,32.0,30.26,NW,321,1.0,2.0,71,0.00,,,0.00,weatherlink.com 1.10,2013-01-07 03:09:00,
2013-01-06 22:24:00,40.3,32.0,30.27,North,11,0.0,3.0,72,0.00,,,0.00,weatherlink.com 1.10,2013-01-07 03:24:00,
2013-01-06 22:39:00,40.4,32.0,30.28,NW,323,0.0,1.0,72,0.00,,,0.00,weatherlink.com 1.10,2013-01-07 03:39:00,
2013-01-06 22:54:00,39.4,32.0,30.29,NW,323,0.0,1.0,74,0.00,,,0.00,weatherlink.com 1.10,2013-01-07 03:54:00,
2013-01-06 23:09:00,38.6,31.0,30.29,NW,318,1.0,2.0,75,0.00,,,0.00,weatherlink.com 1.10,2013-01-07 04:09:00,
2013-01-06 23:24:00,38.6,31.0,30.29,WNW,298,0.0,2.0,75,0.00,,,0.00,weatherlink.com 1.10,2013-01-07 04:24:00,
2013-01-06 23:40:00,37.8,31.0,30.28,WNW,298,0.0,1.0,76,0.00,,,0.00,weatherlink.com 1.10,2013-01-07 04:40:00,
2013-01-06 23:55:00,37.4,31.0,30.30,WNW,298,0.0,1.0,77,0.00,,,0.00,weatherlink.com 1.10,2013-01-07 04:55:00,